North Island, CA

12:54 PM PDT on August 21, 2017 (GMT -0700)
North Island Naval Air Station

Weather History for KNZY - December, 2013

Change the Weather History Date:

Sunday, December 22, 2013

  Actual Average Record
Temperature  
Mean Temperature 60 °F -  
Max Temperature 69 °F 63 °F 73 °F (1999)
Min Temperature 51 °F 46 °F 39 °F (1997)
Degree Days  
Heating Degree Days 5    
Growing Degree Days 10 (Base 50)    
Moisture  
Dew Point 48 °F    
Average Humidity 66    
Maximum Humidity 78    
Minimum Humidity 42    
Precipitation  
Precipitation 0.00 in - - ()
Sea Level Pressure  
Sea Level Pressure 30.17 in    
Wind  
Wind Speed 4 mph (North)    
Max Wind Speed 14 mph    
Max Gust Speed -    
Visibility 9 miles    
Events      
Averages and records for this station are not official NWS values.
T = Trace of Precipitation, MM = Missing Value Source: NWS Daily Summary

Daily Weather History Graph

Daily Weather History Graph

Search for Another Location

Airport or City:

Trip Planner

Search our weather history database for the weather conditions in past years. The results will help you decide how hot, cold, wet, or windy it might be!

Date:

Astronomy

Dec. 22, 2013 Rise Set
Actual Time 6:47 AM PST 4:47 PM PST
Civil Twilight 6:20 AM PST 5:14 PM PST
Nautical Twilight 5:49 AM PST 5:45 PM PST
Astronomical Twilight 5:19 AM PST 6:15 PM PST
Moon 9:48 PM PST (12/22) 10:00 AM PST (12/22)
Length of Visible Light 10h 54m
Length of Day
9h 59m
Waning Gibbous, 76% of the Moon is Illuminated
Dec 22
Waning Gibbous
Dec 25
Last Quarter
Jan 1
New
Jan 7
First Quarter
Jan 15
Full

Hourly Weather History & Observations

Time (PST) Temp. Dew Point Humidity Pressure Visibility Wind Dir Wind Speed Gust Speed Precip Events Conditions
12:52 AM 53.1 °F 46.0 °F 77% 30.07 in 8.0 mi Calm Calm - N/A   Clear
1:52 AM 53.1 °F 46.0 °F 77% 30.09 in 8.0 mi Calm Calm - N/A   Clear
2:52 AM 51.1 °F 44.1 °F 77% 30.10 in 8.0 mi East 3.5 mph - N/A   Clear
3:52 AM 51.1 °F 44.1 °F 77% 30.12 in 8.0 mi East 4.6 mph - N/A   Clear
4:52 AM 52.0 °F 44.1 °F 74% 30.12 in 8.0 mi East 5.8 mph - N/A   Clear
5:52 AM 52.0 °F 43.0 °F 71% 30.14 in 8.0 mi ENE 4.6 mph - N/A   Clear
6:52 AM 51.1 °F 43.0 °F 74% 30.16 in 8.0 mi East 3.5 mph - N/A   Clear
7:52 AM 54.0 °F 46.0 °F 75% 30.18 in 8.0 mi East 3.5 mph - N/A   Partly Cloudy
8:52 AM 61.0 °F 48.0 °F 62% 30.20 in 8.0 mi Calm Calm - N/A   Partly Cloudy
9:52 AM 64.9 °F 46.9 °F 52% 30.21 in 9.0 mi North 3.5 mph - N/A   Clear
10:52 AM 68.0 °F 46.9 °F 47% 30.20 in 9.0 mi NNW 6.9 mph - N/A   Clear
11:52 AM 69.1 °F 45.0 °F 42% 30.18 in 9.0 mi NW 6.9 mph - N/A   Clear
12:52 PM 69.1 °F 46.9 °F 45% 30.16 in 10.0 mi NW 11.5 mph - N/A   Clear
1:52 PM 69.1 °F 48.0 °F 47% 30.15 in 10.0 mi NNW 10.4 mph - N/A   Clear
2:52 PM 68.0 °F 48.9 °F 50% 30.15 in 10.0 mi NNW 11.5 mph - N/A   Clear
3:52 PM 66.9 °F 50.0 °F 54% 30.15 in 9.0 mi NNW 13.8 mph - N/A   Clear
4:52 PM 63.0 °F 52.0 °F 67% 30.17 in 10.0 mi NNW 13.8 mph - N/A   Clear
5:52 PM 62.1 °F 53.1 °F 72% 30.19 in 10.0 mi NNW 9.2 mph - N/A   Clear
6:52 PM 61.0 °F 52.0 °F 72% 30.21 in 9.0 mi NNW 6.9 mph - N/A   Clear
7:52 PM 61.0 °F 53.1 °F 75% 30.22 in 8.0 mi North 6.9 mph - N/A   Clear
8:52 PM 59.0 °F 52.0 °F 78% 30.23 in 7.0 mi North 8.1 mph - N/A   Clear
9:52 PM 60.1 °F 52.0 °F 75% 30.23 in 8.0 mi NNE 3.5 mph - N/A   Clear
10:52 PM 57.0 °F 50.0 °F 77% 30.24 in 9.0 mi Calm Calm - N/A   Clear
11:52 PM 57.0 °F 50.0 °F 77% 30.24 in 7.0 mi WNW 3.5 mph - N/A   Partly Cloudy